Location: Unspecified
(0.0000°N, 0.0000°E)
Time: 21:30:43

ISS - Pass Details

Date: 22 March 2018
Orbit: 403 x 406 km, 51.6° (Epoch: 19 March)

Event Time Altitude Azimuth Distance (km) Brightness Sun altitude
Rises 05:29:19 0° 344° (NNW) 2,301 -0.2 -9.4°
Reaches altitude 10° 05:31:39 10° 359° (N) 1,445 -1.0 -8.8°
Maximum altitude 05:34:18 23° 54° (NE) 900 -1.3 -8.2°
Drops below altitude 10° 05:36:58 10° 110° (ESE) 1,450 0.3 -7.5°
Sets 05:39:18 0° 124° (SE) 2,311 1.0 -6.9°
